163  
ASUS44 KSHV 201010  
RWRSHV  
 
WEATHER ROUNDUP FOR THE FOUR STATE AREA  
NATIONAL WEATHER SERVICE SHREVEPORT LA  
400 AM CST THU FEB 20 2020  
 
NOTE: "FAIR" INDICATES FEW OR NO CLOUDS BELOW 12000 FEET  
WITH NO SIGNIFICANT WEATHER AND/OR S TO VISIBILITY
.  
 
!LAZ001-LAZ014-TXZ097-201100  
SHREVEPORT...MONROE...TEXARKANA RADIOS  
 
CITY SKY/WX TMP DP RH WIND PRES REMARKS
 
SHREVEPORT LGT RAIN 44 42 93 N10 30.22R  
MONROE LGT RAIN 46 43 89 NE12 30.20F  
NATCHITOCHES RAIN 45 45 99 N8 30.17F  
TEXARKANA LGT RAIN 40 40 100 NE16G23 30.29R WCI 31  

 
 
!LAZ001-LAZ014-TXZ097-201100  
OTHER LOCATIONS...  
 
CITY SKY/WX TMP DP RH WIND PRES REMARKS
 
DOWNTOWN SHV LGT RAIN 45 41 86 N12 30.24R  
BOSSIER CITY LGT RAIN 43 43 100 NE10 30.22S  
RUSTON RAIN 44 42 93 N8 30.24R  
LITTLE ROCK LGT RAIN 40 32 73 NE13 30.35F WCI 32  
EL DORADO RAIN 41 41 100 N13G20 30.27R FOG  
JACKSON LGT RAIN 48 45 89 NE9 30.11F FOG  
NEW ORLEANS CLOUDY 62 58 86 E9 30.07F  
HOUSTON DRZL/FOG 49 46 90 N15 30.14R VSB 1  
LUFKIN HVY RAIN 44 42 93 N6 30.18R FOG  
TYLER LGT RAIN 42 40 92 NE12 30.20F  
DAL FT WORTH LGT RAIN 41 40 96 N15 30.31R  

 
 
!TXZ136-TXZ165-201100  
TYLER...LUFKIN RADIOS  
 
CITY SKY/WX TMP DP RH WIND PRES REMARKS
 
TYLER LGT RAIN 42 40 92 NE12 30.20F  
GILMER RAIN 41 40 97 N7 30.24F  
LONGVIEW LGT RAIN 43 39 86 N9G17 30.22S  
LUFKIN HVY RAIN 44 42 93 N6 30.18R FOG  

 
 
!TXZ136-TXZ165-201100  
OTHER LOCATIONS...  
 
CITY SKY/WX TMP DP RH WIND PRES REMARKS
 
NACOGDOCHES LGT RAIN 43 43 100 N6 30.21R  
BEAUMONT CLOUDY 52 50 93 N9 30.09F  
HOUSTON DRZL/FOG 49 46 90 N15 30.14R VSB 1  
COLLEGE STN RAIN 47 44 90 N10 30.19R FOG  
AUSTIN LGT RAIN 47 45 93 N9 30.18S FOG  
DAL FT WORTH LGT RAIN 41 40 96 N15 30.31R  
TEXARKANA LGT RAIN 40 40 100 NE16G23 30.29R WCI 31  
SHREVEPORT LGT RAIN 44 42 93 N10 30.22R  
FORT POLK CLOUDY 44 44 99 N5 30.12F FOG  
LAKE CHARLES CLOUDY 53 50 89 N12 30.09R  

 
 
 
CLICK HERE TO GO TO PREVIOUS BULLETINS.

The Nexlab LA Page
The Nexlab TX Page
The Nexlab AR Page
The Nexlab OK Page Main Text Page